| time (UTC) | temp F | wind direction | speed knots | gust knots | rain 1hr in | rain 24hr in | rain mn in | humidity % | barometer mb |
| 20260504185823 | 42 | 58 | 0.0 | 0.0 | 0.00 | 0.94 | 0.00 | 86 | 1020.3 |
| 20260504185344 | 42 | 58 | 0.0 | 0.0 | 0.00 | 0.94 | 0.00 | 87 | 1020.2 |
| 20260504184819 | 42 | 58 | 0.0 | 0.0 | 0.00 | 0.94 | 0.00 | 86 | 1020.3 |
| 20260504184338 | 42 | 58 | 0.0 | 0.0 | 0.00 | 0.94 | 0.00 | 86 | 1020.2 |
| 20260504183814 | 42 | 58 | 0.0 | 0.0 | 0.00 | 0.94 | 0.00 | 86 | 1020.1 |
| 20260504183312 | 42 | 58 | 0.0 | 0.0 | 0.00 | 0.94 | 0.00 | 85 | 1020.1 |
| 20260504182832 | 42 | 58 | 0.0 | 0.0 | 0.00 | 0.94 | 0.00 | 85 | 1020.0 |
| 20260504182330 | 42 | 58 | 0.0 | 0.0 | 0.00 | 0.94 | 0.00 | 85 | 1019.9 |
| 20260504181828 | 42 | 58 | 0.0 | 0.0 | 0.00 | 0.98 | 0.00 | 83 | 1019.8 |
| 20260504181326 | 42 | 58 | 0.0 | 0.0 | 0.00 | 0.98 | 0.00 | 82 | 1019.7 |
| 20260504180846 | 43 | 58 | 0.0 | 0.0 | 0.00 | 0.98 | 0.00 | 82 | 1019.6 |
| 20260504180327 | 43 | 58 | 0.0 | 0.0 | 0.00 | 0.98 | 0.00 | 82 | 1019.6 |
| 20260504175826 | 44 | 58 | 0.0 | 0.0 | 0.00 | 0.98 | 0.00 | 81 | 1019.5 |
| 20260504175346 | 44 | 58 | 0.0 | 0.0 | 0.00 | 0.98 | 0.00 | 80 | 1019.4 |
| 20260504174823 | 44 | 58 | 0.0 | 0.9 | 0.00 | 0.98 | 0.00 | 79 | 1019.3 |
| 20260504174321 | 44 | 58 | 0.0 | 0.9 | 0.00 | 0.98 | 0.00 | 78 | 1019.2 |
| 20260504173819 | 45 | 58 | 0.0 | 0.9 | 0.00 | 0.98 | 0.00 | 77 | 1019.2 |
| 20260504173317 | 45 | 55 | 0.0 | 0.0 | 0.00 | 0.98 | 0.00 | 76 | 1019.2 |
| 20260504172814 | 45 | 55 | 0.0 | 0.9 | 0.00 | 0.98 | 0.00 | 76 | 1019.1 |
| 20260504172334 | 45 | 55 | 0.0 | 0.9 | 0.00 | 0.98 | 0.00 | 75 | 1019.1 |
| 20260504171832 | 46 | 55 | 0.0 | 0.9 | 0.00 | 1.38 | 0.00 | 75 | 1019.1 |
| 20260504171332 | 46 | 55 | 0.0 | 2.6 | 0.00 | 1.38 | 0.00 | 74 | 1019.0 |
| 20260504170831 | 46 | 55 | 0.9 | 2.6 | 0.00 | 1.38 | 0.00 | 74 | 1019.0 |
| 20260504170330 | 46 | 56 | 0.0 | 3.5 | 0.00 | 1.38 | 0.00 | 74 | 1018.9 |
| 20260504160315 | 47 | 86 | 3.5 | 8.7 | 0.00 | 1.50 | 0.00 | 76 | 1018.4 |
| 20260504150845 | 46 | 49 | 4.3 | 12.2 | 0.00 | 1.50 | 0.30 | 78 | 1018.3 |
| 20260504150322 | 46 | 330 | 5.2 | 10.4 | 0.00 | 1.50 | 0.30 | 78 | 1018.3 |
| 20260504141327 | 47 | 53 | 7.0 | 15.6 | 0.00 | 1.50 | 0.30 | 79 | 1017.4 |
| 20260504140825 | 47 | 116 | 6.1 | 15.6 | 0.00 | 1.50 | 0.30 | 79 | 1017.2 |
| 20260504140327 | 46 | 42 | 7.8 | 18.2 | 0.00 | 1.50 | 0.30 | 79 | 1017.0 |
| 20260504130347 | 49 | 48 | 9.6 | 25.2 | 0.00 | 1.54 | 0.30 | 78 | 1015.9 |
| 20260504110317 | 53 | 55 | 8.7 | 21.7 | 0.00 | 1.65 | 0.30 | 76 | 1011.5 |
| 20260504100317 | 55 | 46 | 6.1 | 17.4 | 0.00 | 1.81 | 0.30 | 73 | 1009.8 |
| 20260504081824 | 64 | 303 | 2.6 | 7.8 | 0.00 | 1.81 | 0.30 | 52 | 1006.9 |
| 20260504081323 | 64 | 34 | 0.9 | 12.2 | 0.00 | 1.81 | 0.30 | 54 | 1006.8 |
| 20260504080821 | 64 | 85 | 5.2 | 13.9 | 0.00 | 1.81 | 0.30 | 55 | 1006.6 |
| 20260504080325 | 64 | 52 | 4.3 | 14.8 | 0.00 | 1.81 | 0.30 | 55 | 1006.0 |
| 20260504070322 | 66 | 46 | 2.6 | 7.8 | 0.00 | 1.81 | 0.30 | 59 | 1004.3 |
| 20260504050331 | 65 | 91 | 7.8 | 13.9 | 0.00 | 1.81 | 0.30 | 68 | 1002.4 |
| 20260504045830 | 66 | 15 | 7.8 | 14.8 | 0.00 | 1.81 | 0.30 | 69 | 1002.4 |
| 20260504045350 | 66 | 30 | 6.1 | 15.6 | 0.00 | 1.81 | 0.30 | 70 | 1002.3 |
| 20260504044827 | 66 | 74 | 8.7 | 15.6 | 0.00 | 1.81 | 0.30 | 70 | 1002.4 |
| 20260504044324 | 65 | 173 | 10.4 | 14.8 | 0.00 | 1.81 | 0.30 | 70 | 1002.4 |
| 20260504043823 | 66 | 103 | 6.1 | 15.6 | 0.00 | 1.81 | 0.30 | 70 | 1002.3 |
| 20260504043321 | 66 | 21 | 9.6 | 15.6 | 0.00 | 1.81 | 0.30 | 70 | 1002.3 |
| 20260504042819 | 67 | 99 | 9.6 | 15.6 | 0.00 | 1.81 | 0.30 | 70 | 1002.3 |
| 20260504042317 | 67 | 119 | 9.6 | 14.8 | 0.00 | 1.81 | 0.30 | 70 | 1002.2 |
| 20260504041838 | 67 | 31 | 9.6 | 14.8 | 0.00 | 1.81 | 0.30 | 71 | 1002.1 |
| 20260504041314 | 66 | 53 | 8.7 | 17.4 | 0.00 | 1.81 | 0.30 | 73 | 1001.9 |
| 20260504040815 | 66 | 86 | 8.7 | 17.4 | 0.00 | 1.81 | 0.30 | 73 | 1001.7 |
| 20260504040314 | 66 | 49 | 7.8 | 17.4 | 0.00 | 1.81 | 0.30 | 72 | 1001.8 |
| 20260504035812 | 67 | 24 | 7.8 | 17.4 | 0.00 | 1.81 | 0.30 | 72 | 1001.4 |
| 20260504035331 | 67 | 41 | 11.3 | 17.4 | 0.00 | 1.81 | 0.30 | 70 | 1001.5 |
| 20260504034830 | 68 | 332 | 7.8 | 17.4 | 0.00 | 1.81 | 0.30 | 71 | 1001.5 |
| 20260504034329 | 68 | 30 | 7.8 | 13.9 | 0.00 | 1.81 | 0.30 | 72 | 1001.6 |
| 20260504033828 | 68 | 304 | 6.1 | 16.5 | 0.00 | 1.81 | 0.30 | 72 | 1001.5 |
| 20260504033327 | 68 | 46 | 7.0 | 14.8 | 0.00 | 1.81 | 0.30 | 72 | 1001.4 |
| 20260504032825 | 68 | 82 | 7.0 | 15.6 | 0.00 | 1.81 | 0.30 | 73 | 1001.5 |
| 20260504032323 | 68 | 43 | 9.6 | 15.6 | 0.00 | 1.81 | 0.30 | 71 | 1001.5 |
| 20260504031821 | 68 | 7 | 7.0 | 14.8 | 0.00 | 1.81 | 0.30 | 72 | 1001.7 |
| 20260504031339 | 68 | 33 | 8.7 | 14.8 | 0.00 | 1.81 | 0.30 | 72 | 1001.7 |
| 20260504030817 | 68 | 56 | 5.2 | 13.9 | 0.00 | 1.81 | 0.30 | 74 | 1001.8 |
| 20260504030315 | 68 | 18 | 6.1 | 13.0 | 0.00 | 1.81 | 0.30 | 72 | 1001.8 |
| 20260504025812 | 68 | 77 | 5.2 | 16.5 | 0.00 | 1.81 | 0.30 | 73 | 1001.8 |
| 20260504025313 | 68 | 125 | 9.6 | 16.5 | 0.00 | 1.81 | 0.30 | 71 | 1001.7 |
| 20260504024853 | 68 | 338 | 4.3 | 13.9 | 0.00 | 1.81 | 0.30 | 73 | 1001.8 |
| 20260504024331 | 68 | 15 | 6.1 | 12.2 | 0.00 | 1.81 | 0.30 | 74 | 1001.8 |
| 20260504023813 | 68 | 91 | 7.8 | 13.0 | 0.00 | 1.81 | 0.30 | 74 | 1001.7 |
| 20260504023349 | 68 | 51 | 4.3 | 11.3 | 0.00 | 1.81 | 0.30 | 74 | 1001.9 |
| 20260504022828 | 68 | 84 | 3.5 | 8.7 | 0.00 | 1.81 | 0.30 | 75 | 1002.0 |
| 20260504022329 | 68 | 311 | 5.2 | 11.3 | 0.00 | 1.81 | 0.30 | 72 | 1002.1 |
| 20260504021828 | 68 | 83 | 5.2 | 12.2 | 0.00 | 1.81 | 0.30 | 74 | 1002.1 |
| 20260504021326 | 68 | 23 | 7.0 | 12.2 | 0.00 | 1.81 | 0.30 | 73 | 1002.2 |
| 20260504020824 | 68 | 343 | 6.1 | 11.3 | 0.00 | 1.81 | 0.30 | 73 | 1002.3 |
| 20260504020322 | 69 | 65 | 4.3 | 13.9 | 0.00 | 1.81 | 0.30 | 74 | 1002.5 |
| 20260504015820 | 69 | 330 | 6.1 | 13.9 | 0.00 | 1.81 | 0.30 | 73 | 1002.2 |
| 20260504015317 | 68 | 42 | 5.2 | 12.2 | 0.00 | 1.81 | 0.30 | 74 | 1002.4 |
| 20260504014837 | 68 | 24 | 2.6 | 11.3 | 0.00 | 1.81 | 0.30 | 74 | 1002.3 |
| 20260504014314 | 68 | 131 | 3.5 | 11.3 | 0.00 | 1.81 | 0.30 | 74 | 1002.3 |
| 20260504013814 | 68 | 347 | 3.5 | 12.2 | 0.00 | 1.81 | 0.30 | 74 | 1002.5 |
| 20260504013312 | 68 | 20 | 3.5 | 12.2 | 0.00 | 1.81 | 0.30 | 75 | 1002.4 |
| 20260504012831 | 68 | 36 | 4.3 | 11.3 | 0.00 | 1.81 | 0.30 | 75 | 1002.7 |
| 20260504012330 | 68 | 10 | 5.2 | 11.3 | 0.00 | 1.81 | 0.30 | 75 | 1002.7 |
| 20260504011849 | 68 | 17 | 2.6 | 9.6 | 0.00 | 1.81 | 0.30 | 76 | 1003.0 |
| 20260504011347 | 67 | 69 | 5.2 | 11.3 | 0.00 | 1.81 | 0.30 | 76 | 1003.0 |
| 20260504010824 | 66 | 65 | 3.5 | 11.3 | 0.00 | 1.81 | 0.30 | 77 | 1003.1 |
| 20260504010322 | 66 | 31 | 4.3 | 11.3 | 0.00 | 1.81 | 0.30 | 78 | 1003.4 |
| 20260504005821 | 66 | 75 | 5.2 | 11.3 | 0.00 | 1.81 | 0.30 | 78 | 1003.5 |
| 20260504005323 | 66 | 27 | 3.5 | 12.2 | 0.00 | 1.81 | 0.30 | 79 | 1003.2 |
| 20260504004822 | 66 | 19 | 6.1 | 12.2 | 0.00 | 1.81 | 0.30 | 78 | 1003.5 |
| 20260504004321 | 66 | 261 | 1.7 | 8.7 | 0.00 | 1.81 | 0.30 | 80 | 1003.4 |
| 20260504003841 | 65 | 44 | 4.3 | 13.0 | 0.00 | 1.81 | 0.30 | 80 | 1003.3 |
| 20260504003319 | 65 | 128 | 6.1 | 13.0 | 0.00 | 1.81 | 0.30 | 79 | 1003.1 |
| 20260504002838 | 65 | 2 | 3.5 | 11.3 | 0.00 | 1.81 | 0.30 | 79 | 1003.2 |
| 20260504002336 | 65 | 68 | 5.2 | 11.3 | 0.00 | 1.81 | 0.30 | 81 | 1003.1 |
| 20260504001835 | 65 | 60 | 4.3 | 10.4 | 0.00 | 1.81 | 0.30 | 82 | 1003.0 |
| 20260504001332 | 64 | 87 | 3.5 | 9.6 | 0.00 | 1.81 | 0.30 | 83 | 1003.0 |
| 20260504000830 | 64 | 51 | 5.2 | 9.6 | 0.00 | 1.81 | 0.30 | 83 | 1003.0 |
| 20260504000349 | 64 | 22 | 4.3 | 11.3 | 0.00 | 1.81 | 0.30 | 83 | 1003.0 |
| 20260503235827 | 63 | 37 | 4.3 | 11.3 | 0.00 | 1.81 | 0.30 | 83 | 1002.9 |
| 20260503235326 | 64 | 39 | 3.5 | 9.6 | 0.00 | 1.81 | 0.30 | 84 | 1002.8 |
| 20260503234824 | 63 | 50 | 4.3 | 9.6 | 0.00 | 1.81 | 0.30 | 85 | 1003.0 |
| 20260503234322 | 63 | 44 | 2.6 | 13.0 | 0.00 | 1.81 | 0.30 | 85 | 1003.0 |
| 20260503233822 | 62 | 126 | 7.0 | 13.0 | 0.00 | 1.81 | 0.30 | 85 | 1003.1 |
| 20260503233321 | 62 | 58 | 6.1 | 10.4 | 0.00 | 1.81 | 0.30 | 86 | 1003.2 |
| 20260503232820 | 62 | 133 | 5.2 | 8.7 | 0.00 | 1.81 | 0.30 | 86 | 1003.1 |
| 20260503232316 | 62 | 58 | 2.6 | 7.0 | 0.00 | 1.81 | 0.30 | 87 | 1003.1 |
| 20260503231813 | 62 | 42 | 3.5 | 7.8 | 0.00 | 1.81 | 0.30 | 88 | 1003.2 |
| 20260503231333 | 62 | 73 | 4.3 | 8.7 | 0.00 | 1.81 | 0.30 | 88 | 1003.1 |
| 20260503230851 | 62 | 105 | 5.2 | 8.7 | 0.00 | 1.81 | 0.30 | 88 | 1002.8 |
| 20260503230313 | 62 | 42 | 2.6 | 10.4 | 0.00 | 1.81 | 0.30 | 90 | 1003.0 |
| 20260503225812 | 62 | 21 | 5.2 | 10.4 | 0.00 | 1.81 | 0.30 | 90 | 1003.0 |
| 20260503225352 | 61 | 35 | 3.5 | 7.8 | 0.00 | 1.81 | 0.30 | 91 | 1002.7 |
| 20260503224830 | 61 | 57 | 0.9 | 7.0 | 0.00 | 1.81 | 0.30 | 92 | 1002.5 |
| 20260503224327 | 61 | 354 | 3.5 | 7.0 | 0.00 | 1.81 | 0.30 | 93 | 1002.5 |
| 20260503223825 | 60 | 70 | 2.6 | 8.7 | 0.00 | 1.81 | 0.30 | 93 | 1002.4 |
| 20260503223323 | 60 | 49 | 6.1 | 8.7 | 0.00 | 1.81 | 0.30 | 93 | 1002.5 |
| 20260503222823 | 60 | 44 | 3.5 | 7.8 | 0.00 | 1.81 | 0.30 | 94 | 1002.5 |
| 20260503222321 | 60 | 58 | 0.9 | 6.1 | 0.00 | 1.81 | 0.30 | 94 | 1002.7 |
| 20260503221821 | 60 | 101 | 2.6 | 5.2 | 0.04 | 1.81 | 0.30 | 95 | 1002.6 |
| 20260503221319 | 60 | 78 | 2.6 | 5.2 | 0.04 | 1.81 | 0.30 | 95 | 1002.5 |
| 20260503220818 | 60 | 32 | 0.9 | 2.6 | 0.08 | 1.81 | 0.30 | 95 | 1002.6 |
| 20260503220317 | 60 | 13 | 0.9 | 2.6 | 0.12 | 1.81 | 0.30 | 95 | 1002.2 |
| 20260503215815 | 60 | 39 | 0.9 | 2.6 | 0.16 | 1.81 | 0.30 | 95 | 1002.2 |
| 20260503215335 | 60 | 47 | 0.0 | 1.7 | 0.16 | 1.81 | 0.30 | 95 | 1002.2 |
| 20260503214833 | 60 | 46 | 0.9 | 1.7 | 0.20 | 1.81 | 0.30 | 95 | 1002.1 |
| 20260503214352 | 60 | 33 | 0.0 | 2.6 | 0.24 | 1.81 | 0.30 | 95 | 1002.1 |
| 20260503213827 | 60 | 61 | 0.9 | 2.6 | 0.31 | 1.81 | 0.30 | 94 | 1001.9 |
| 20260503213325 | 60 | 33 | 0.9 | 1.7 | 0.31 | 1.81 | 0.30 | 94 | 1002.2 |
| 20260503212824 | 60 | 6 | 0.0 | 2.6 | 0.35 | 1.81 | 0.30 | 95 | 1002.1 |
| 20260503212327 | 60 | 32 | 0.9 | 2.6 | 0.47 | 1.81 | 0.30 | 95 | 1002.1 |
| 20260503211826 | 60 | 330 | 0.9 | 0.9 | 0.51 | 1.77 | 0.29 | 94 | 1002.3 |
| 20260503211324 | 60 | 221 | 0.0 | 1.7 | 0.67 | 1.77 | 0.29 | 95 | 1002.6 |
| 20260503210821 | 60 | 254 | 0.0 | 0.9 | 0.75 | 1.73 | 0.28 | 94 | 1002.2 |
| 20260503210321 | 60 | 53 | 0.0 | 0.9 | 0.75 | 1.69 | 0.28 | 94 | 1002.2 |
| 20260503205819 | 60 | 53 | 0.0 | 1.7 | 0.75 | 1.65 | 0.27 | 94 | 1002.2 |
| 20260503205319 | 60 | 53 | 0.9 | 1.7 | 0.75 | 1.65 | 0.27 | 95 | 1001.9 |
| 20260503204840 | 60 | 49 | 0.0 | 1.7 | 0.71 | 1.61 | 0.26 | 95 | 1001.9 |
| 20260503204318 | 60 | 169 | 0.0 | 1.7 | 0.67 | 1.54 | 0.24 | 95 | 1001.8 |
| 20260503203817 | 60 | 91 | 0.0 | 1.7 | 0.63 | 1.50 | 0.24 | 95 | 1002.1 |
| 20260503203315 | 59 | 92 | 0.0 | 4.3 | 0.63 | 1.50 | 0.24 | 95 | 1002.1 |
| 20260503202813 | 59 | 58 | 1.7 | 4.3 | 0.59 | 1.46 | 0.23 | 94 | 1001.6 |
| 20260503202312 | 59 | 65 | 0.9 | 2.6 | 0.47 | 1.34 | 0.20 | 94 | 1001.8 |
| 20260503201812 | 59 | 63 | 0.9 | 1.7 | 0.39 | 1.26 | 0.19 | 94 | 1002.0 |
| 20260503201332 | 60 | 5 | 0.0 | 2.6 | 0.24 | 1.10 | 0.16 | 93 | 1002.2 |
| 20260503200814 | 60 | 18 | 0.0 | 2.6 | 0.12 | 0.98 | 0.13 | 93 | 1002.0 |
| 20260503200312 | 60 | 41 | 0.0 | 2.6 | 0.08 | 0.94 | 0.13 | 93 | 1001.6 |
| 20260503195830 | 60 | 249 | 0.0 | 0.9 | 0.04 | 0.91 | 0.12 | 93 | 1001.2 |
| 20260503195329 | 60 | 228 | 0.0 | 0.9 | 0.04 | 0.91 | 0.12 | 93 | 1001.1 |
| 20260503194847 | 60 | 275 | 0.0 | 0.9 | 0.04 | 0.91 | 0.12 | 93 | 1000.7 |
| 20260503194324 | 60 | 56 | 0.0 | 0.9 | 0.00 | 0.87 | 0.11 | 93 | 1000.7 |
| 20260503193823 | 60 | 56 | 0.0 | 0.0 | 0.00 | 0.87 | 0.11 | 93 | 1000.6 |
| 20260503193320 | 60 | 56 | 0.0 | 0.0 | 0.00 | 0.87 | 0.11 | 92 | 1000.5 |
| 20260503192818 | 60 | 56 | 0.0 | 0.0 | 0.00 | 0.87 | 0.11 | 92 | 1000.4 |
| 20260503192317 | 60 | 56 | 0.0 | 0.0 | 0.00 | 0.87 | 0.11 | 92 | 1000.4 |
| 20260503191814 | 60 | 56 | 0.0 | 0.0 | 0.00 | 0.87 | 0.11 | 92 | 1000.4 |
| 20260503191313 | 60 | 56 | 0.0 | 0.0 | 0.00 | 0.87 | 0.11 | 92 | 1000.5 |
| 20260503190832 | 60 | 56 | 0.0 | 0.9 | 0.00 | 0.87 | 0.11 | 92 | 1000.2 |
| 20260503190351 | 60 | 56 | 0.0 | 1.7 | 0.00 | 0.87 | 0.11 | 92 | 1000.3 |